�N����,����,�~����,�C��,���x,�C��,����,���ϕ���,�ő�u�ԕ���,�ő厞����,���˗�,�I�_���x,�n�����x,�ő啗���N��,DTYPE
"21/07/06","00:10",0.0,24.7,93.2,1006.4,305.3,0.6,1.0,258.7,0.00,23.6,25.7,"00:00:40",1
"21/07/06","00:20",0.0,24.6,93.3,1006.0,310.8,0.8,1.4,316.6,0.00,23.5,25.7,"00:16:40",1
"21/07/06","00:30",0.0,24.6,93.4,1006.2,326.5,0.7,1.2,334.5,0.00,23.5,25.8,"00:23:36",1
"21/07/06","00:40",0.0,24.6,93.4,1006.0,312.4,0.6,0.8,321.1,0.00,23.5,25.5,"00:38:40",1
"21/07/06","00:50",0.0,24.7,93.5,1006.2,308.3,0.6,1.3,321.4,0.00,23.6,25.5,"00:49:36",1
"21/07/06","01:00",0.0,24.6,93.5,1006.0,295.5,0.3,1.3,318.6,0.00,23.5,25.6,"00:50:24",1
"21/07/06","01:10",0.0,24.7,93.5,1006.2,330.0,1.0,1.7,346.7,0.00,23.6,25.6,"01:08:16",1
"21/07/06","01:20",0.0,24.7,93.5,1006.0,340.1,1.0,1.4,349.5,0.00,23.6,25.5,"01:10:48",1
"21/07/06","01:30",0.0,24.5,93.5,1006.4,318.1,0.6,1.3,310.7,0.00,23.4,25.6,"01:27:28",1
"21/07/06","01:40",0.0,24.4,93.6,1005.7,276.9,0.3,0.9,267.7,0.00,23.3,25.6,"01:32:40",1
"21/07/06","01:50",0.0,24.4,93.7,1006.2,329.5,0.6,1.3,341.5,0.00,23.4,25.6,"01:42:32",1
"21/07/06","02:00",0.0,24.4,93.8,1006.0,321.6,0.8,1.3,342.7,0.00,23.4,25.5,"01:51:52",1
"21/07/06","02:10",0.0,24.5,93.8,1006.2,330.8,0.7,1.3,317.8,0.00,23.5,25.5,"02:01:52",1
"21/07/06","02:20",0.0,24.6,93.8,1006.4,296.6,0.3,0.6,325.1,0.00,23.6,25.5,"02:10:08",1
"21/07/06","02:30",0.0,24.6,93.8,1006.2,305.9,0.5,0.9,315.4,0.00,23.6,25.4,"02:20:16",1
"21/07/06","02:40",0.0,24.6,93.9,1006.2,276.1,0.3,0.9,334.7,0.00,23.6,25.3,"02:38:16",1
"21/07/06","02:50",0.0,24.5,93.9,1006.4,340.3,0.3,1.3,263.7,0.00,23.5,25.3,"02:49:12",1
"21/07/06","03:00",0.0,24.6,93.9,1006.4,308.4,0.8,1.7,315.2,0.00,23.6,25.5,"02:50:24",1
"21/07/06","03:10",0.0,24.5,94.0,1006.2,327.1,0.7,1.2,320.5,0.00,23.5,25.4,"03:03:04",1
"21/07/06","03:20",0.0,24.4,94.0,1006.2,312.0,0.7,1.3,333.0,0.00,23.4,25.5,"03:13:20",1
"21/07/06","03:30",0.0,24.3,94.1,1006.7,347.8,0.7,1.9,342.9,0.00,23.3,25.3,"03:27:04",1
"21/07/06","03:40",0.0,24.2,94.1,1006.7,331.2,0.7,1.2,266.8,0.00,23.2,25.5,"03:33:04",1
"21/07/06","03:50",0.0,24.0,94.2,1006.4,294.7,0.7,1.3,265.0,0.00,23.0,25.5,"03:41:04",1
"21/07/06","04:00",0.0,24.0,94.2,1006.2,314.6,1.0,1.6,333.3,0.00,23.0,25.3,"03:58:00",1
"21/07/06","04:10",0.0,23.9,94.3,1006.2,318.1,0.8,1.4,325.7,0.00,23.0,25.2,"04:04:00",1
"21/07/06","04:20",0.0,23.8,94.4,1006.0,339.7,0.8,1.6,358.2,0.00,22.9,25.2,"04:17:04",1
"21/07/06","04:30",0.0,23.7,94.4,1006.4,304.5,0.7,1.3,330.0,0.00,22.8,25.3,"04:22:48",1
"21/07/06","04:40",0.0,23.7,94.5,1006.4,315.9,0.7,1.2,336.6,0.00,22.8,25.2,"04:34:24",1
"21/07/06","04:50",0.0,23.7,94.5,1006.2,330.7,0.8,1.1,324.4,0.00,22.8,25.4,"04:44:08",1
"21/07/06","05:00",0.0,23.8,94.6,1006.7,333.2,1.1,1.7,336.6,0.00,22.9,25.2,"04:50:02",1
"21/07/06","05:10",0.0,23.9,94.7,1006.7,277.8,1.2,1.7,331.8,0.00,23.0,25.3,"05:01:52",1
"21/07/06","05:20",0.0,23.9,94.6,1006.4,315.4,0.6,1.2,327.1,0.00,23.0,25.1,"05:14:56",1
"21/07/06","05:30",0.0,24.0,94.7,1006.9,291.5,0.5,1.3,253.9,0.00,23.1,25.2,"05:28:08",1
"21/07/06","05:40",0.0,24.0,94.7,1006.4,323.9,1.0,1.4,341.1,0.00,23.1,25.1,"05:34:56",1
"21/07/06","05:50",0.0,24.0,94.7,1006.4,301.9,0.8,1.3,252.7,0.00,23.1,25.2,"05:48:08",1
"21/07/06","06:00",0.0,24.1,94.7,1006.7,324.7,0.7,1.2,359.7,0.00,23.2,25.0,"05:59:04",1
"21/07/06","06:10",0.0,24.1,94.8,1006.9,310.2,0.5,1.3,308.4,0.00,23.3,25.1,"06:01:28",1
"21/07/06","06:20",0.0,24.3,94.8,1007.1,279.3,0.8,1.3,250.8,0.00,23.5,25.2,"06:11:52",1
"21/07/06","06:30",0.0,24.4,94.8,1006.7,347.5,0.8,1.3,7.6,0.01,23.6,25.0,"06:27:04",1
"21/07/06","06:40",0.0,24.6,94.8,1006.9,269.6,0.7,1.1,240.1,0.02,23.8,25.1,"06:34:40",1
"21/07/06","06:50",0.0,24.8,94.8,1006.9,332.2,1.0,1.8,345.2,0.04,23.9,25.1,"06:46:08",1
"21/07/06","07:00",0.0,24.8,94.7,1006.7,307.7,1.0,1.3,347.7,0.02,23.9,25.0,"06:50:24",1
"21/07/06","07:10",0.0,24.9,94.8,1006.9,325.9,1.2,1.9,336.7,0.03,24.0,25.2,"07:03:36",1
"21/07/06","07:20",0.0,25.3,94.7,1007.1,304.4,0.7,1.2,319.5,0.05,24.4,24.8,"07:18:24",1
"21/07/06","07:30",0.0,25.7,94.6,1006.9,316.1,0.8,1.7,338.6,0.08,24.8,24.9,"07:21:04",1
"21/07/06","07:40",0.0,26.3,94.6,1006.9,324.6,0.6,1.3,329.7,0.12,25.4,24.8,"07:30:40",1
"21/07/06","07:50",0.0,26.3,94.2,1006.9,310.2,0.5,1.6,345.9,0.13,25.3,25.2,"07:41:52",1
"21/07/06","08:00",0.0,26.7,94.0,1006.9,353.1,0.3,1.1,345.0,0.11,25.7,25.1,"07:53:12",1
"21/07/06","08:10",0.0,26.7,93.2,1006.9,240.2,0.3,0.9,231.3,0.12,25.5,25.2,"08:07:04",1
"21/07/06","08:20",0.0,27.2,93.3,1006.7,138.7,0.2,0.8,143.4,0.15,26.1,25.0,"08:17:20",1
"21/07/06","08:30",0.0,27.1,92.4,1005.7,114.8,0.3,1.2,123.0,0.17,25.8,25.1,"08:24:08",1
"21/07/06","08:40",0.0,27.3,91.8,1006.2,14.2,0.5,1.6,24.8,0.21,25.9,25.2,"08:38:56",1
"21/07/06","08:50",0.0,27.4,90.6,1006.4,12.8,0.7,2.1,9.1,0.18,25.8,25.1,"08:45:36",1
"21/07/06","09:00",0.0,28.2,89.4,1006.7,42.4,0.6,1.7,103.3,0.24,26.3,25.2,"08:55:44",1
"21/07/06","09:10",0.0,28.5,86.8,1006.4,17.7,0.6,1.3,22.0,0.21,26.1,25.3,"09:00:08",1
"21/07/06","09:20",0.0,29.3,83.8,1006.7,69.3,0.5,1.2,54.3,0.25,26.3,25.2,"09:12:00",1
"21/07/06","09:30",0.0,29.4,80.3,1006.4,15.9,0.7,1.6,333.3,0.19,25.7,25.3,"09:22:56",1
"21/07/06","09:40",0.0,29.6,78.1,1006.4,15.9,0.8,2.0,359.3,0.17,25.4,25.3,"09:38:40",1
"21/07/06","09:50",0.0,29.6,77.0,1006.4,4.5,0.8,1.7,347.0,0.20,25.2,25.3,"09:45:12",1
"21/07/06","10:00",0.0,29.9,76.3,1006.0,0.8,0.6,1.4,349.5,0.17,25.3,25.4,"09:55:20",1
"21/07/06","10:10",0.0,30.2,75.7,1006.4,68.4,0.3,2.4,66.1,0.20,25.5,25.5,"10:00:48",1
"21/07/06","10:20",0.0,30.2,74.3,1006.9,41.1,0.7,1.6,41.7,0.19,25.2,25.4,"10:13:44",1
"21/07/06","10:30",0.0,29.6,75.8,1006.2,190.7,1.5,4.2,138.4,0.22,24.9,25.5,"10:21:28",1
"21/07/06","10:40",0.0,30.3,75.9,1006.2,164.2,1.0,2.2,142.1,0.27,25.6,25.6,"10:34:48",1
"21/07/06","10:50",0.0,30.7,74.2,1006.4,182.3,0.5,1.6,8.0,0.27,25.6,25.7,"10:44:08",1
"21/07/06","11:00",0.0,30.8,72.3,1006.2,177.2,0.7,2.9,197.1,0.27,25.3,25.6,"10:58:08",1
"21/07/06","11:10",0.0,30.9,71.1,1006.7,203.6,0.8,2.4,234.9,0.27,25.1,25.7,"11:05:32",1
"21/07/06","11:20",0.0,31.1,69.9,1006.4,247.0,0.7,1.8,227.1,0.28,25.0,25.8,"11:15:44",1
"21/07/06","11:30",0.0,31.0,69.7,1006.2,247.7,0.7,2.4,201.6,0.23,24.9,25.6,"11:24:16",1
"21/07/06","11:40",0.0,30.7,70.3,1006.0,206.5,1.0,2.4,215.4,0.21,24.7,25.7,"11:31:36",1
"21/07/06","11:50",0.0,30.6,71.4,1006.2,212.3,1.0,2.4,230.0,0.13,24.9,25.7,"11:46:32",1
"21/07/06","12:00",0.0,30.0,72.4,1005.5,241.4,1.2,2.5,208.5,0.07,24.5,25.8,"11:50:24",1
"21/07/06","12:10",0.0,29.9,72.5,1005.5,288.1,1.0,2.9,235.0,0.16,24.5,25.9,"12:08:00",1
"21/07/06","12:20",0.0,30.1,69.6,1005.5,243.5,2.1,4.0,237.4,0.23,24.0,26.1,"12:12:48",1
"21/07/06","12:30",0.0,30.4,68.8,1005.0,239.1,1.6,3.6,207.1,0.22,24.1,26.1,"12:20:56",1
"21/07/06","12:40",0.0,30.9,68.0,1005.2,237.0,1.2,2.8,220.7,0.32,24.3,26.2,"12:38:08",1
"21/07/06","12:50",0.0,31.4,66.6,1005.5,250.2,1.1,3.5,206.7,0.39,24.5,26.1,"12:42:08",1
"21/07/06","13:00",0.0,32.1,66.9,1005.7,244.1,0.8,2.0,152.2,0.40,25.2,26.2,"12:58:08",1
"21/07/06","13:10",0.0,32.2,68.4,1005.7,162.0,1.1,2.8,162.2,0.34,25.7,26.2,"13:00:48",1
"21/07/06","13:20",0.0,31.4,67.3,1005.7,180.8,1.6,3.7,208.5,0.25,24.6,26.1,"13:12:24",1
"21/07/06","13:30",0.0,30.9,69.2,1005.5,190.4,1.3,3.5,221.9,0.16,24.6,26.1,"13:20:32",1
"21/07/06","13:40",0.0,30.9,67.8,1005.5,277.7,1.1,3.1,190.5,0.17,24.3,26.2,"13:30:16",1
"21/07/06","13:50",0.0,31.3,66.7,1005.2,306.2,0.8,2.1,265.9,0.22,24.4,26.2,"13:44:08",1
"21/07/06","14:00",0.0,31.0,66.3,1005.2,314.6,1.5,2.8,336.0,0.23,24.0,26.4,"13:50:16",1
"21/07/06","14:10",0.0,31.3,65.4,1005.2,337.1,1.7,3.4,350.2,0.33,24.1,26.5,"14:00:24",1
"21/07/06","14:20",0.0,31.5,64.3,1005.0,333.3,1.3,3.7,342.8,0.33,24.0,26.5,"14:11:12",1
"21/07/06","14:30",0.0,32.2,63.4,1005.0,357.4,0.8,1.8,349.6,0.32,24.4,26.5,"14:20:16",1
"21/07/06","14:40",0.0,32.1,63.5,1005.0,319.7,1.3,2.8,341.6,0.28,24.3,26.5,"14:36:16",1
"21/07/06","14:50",0.0,31.7,63.8,1005.0,232.9,1.3,3.2,257.0,0.23,24.0,26.5,"14:41:12",1
"21/07/06","15:00",0.0,31.7,64.3,1005.0,285.0,1.0,3.2,6.4,0.18,24.2,26.5,"14:55:20",1
"21/07/06","15:10",0.0,31.5,63.6,1004.3,261.9,1.2,3.9,220.4,0.20,23.8,26.6,"15:05:36",1
"21/07/06","15:20",0.0,31.3,62.6,1004.3,247.1,1.1,3.2,249.3,0.15,23.3,26.6,"15:17:52",1
"21/07/06","15:30",0.0,30.9,65.1,1003.8,241.6,1.2,3.2,195.5,0.07,23.6,26.6,"15:28:32",1
"21/07/06","15:40",0.0,30.7,66.3,1004.1,228.5,1.3,3.5,245.4,0.08,23.7,26.6,"15:37:28",1
"21/07/06","15:50",0.0,30.6,67.6,1003.4,227.1,1.3,3.6,233.2,0.08,24.0,26.7,"15:46:24",1
"21/07/06","16:00",0.0,30.6,67.3,1003.6,231.9,1.1,2.9,235.8,0.09,23.9,26.5,"15:58:08",1
"21/07/06","16:10",0.0,30.4,65.7,1003.6,221.7,1.7,5.8,199.9,0.10,23.3,26.7,"16:08:24",1
"21/07/06","16:20",0.0,30.7,66.5,1003.6,257.2,1.0,2.8,238.7,0.10,23.8,26.5,"16:10:32",1
"21/07/06","16:30",0.0,30.6,66.2,1003.8,227.1,1.1,2.0,211.2,0.10,23.6,26.6,"16:20:32",1
"21/07/06","16:40",0.0,30.6,64.8,1003.8,263.0,0.8,4.1,179.8,0.11,23.3,26.9,"16:39:52",1
"21/07/06","16:50",0.0,30.7,64.6,1003.8,279.2,1.5,4.9,213.7,0.10,23.3,26.7,"16:40:16",1
"21/07/06","17:00",0.0,30.3,64.4,1003.8,300.5,1.3,3.5,327.5,0.09,22.9,26.6,"16:57:12",1
"21/07/06","17:10",0.0,30.3,64.7,1003.8,302.4,0.8,1.8,274.2,0.08,22.9,26.6,"17:06:48",1
"21/07/06","17:20",0.0,30.0,64.7,1003.8,296.5,1.1,2.6,340.7,0.06,22.7,26.5,"17:12:24",1
"21/07/06","17:30",0.0,29.8,65.1,1003.6,282.2,1.1,2.7,255.5,0.04,22.6,26.5,"17:29:52",1
"21/07/06","17:40",0.0,29.8,65.2,1003.6,294.9,1.2,3.1,260.9,0.05,22.6,26.6,"17:30:08",1
"21/07/06","17:50",0.0,29.7,65.1,1003.6,296.0,1.5,4.7,240.5,0.05,22.5,26.7,"17:49:28",1
"21/07/06","18:00",0.0,29.7,65.2,1003.8,265.5,1.3,3.2,245.8,0.04,22.5,26.5,"17:50:56",1
"21/07/06","18:10",0.0,29.7,65.5,1003.4,271.1,0.8,2.8,240.2,0.02,22.6,26.5,"18:09:20",1
"21/07/06","18:20",0.0,29.3,66.4,1003.6,283.8,1.1,2.4,303.2,0.01,22.4,26.4,"18:10:32",1
"21/07/06","18:30",0.0,29.3,67.0,1003.1,265.9,1.1,3.9,242.6,0.01,22.6,26.7,"18:23:04",1
"21/07/06","18:40",0.0,29.3,67.7,1003.4,311.4,1.1,2.2,324.5,0.01,22.7,26.6,"18:37:28",1
"21/07/06","18:50",0.0,29.0,68.8,1003.4,315.3,1.0,1.9,340.9,0.00,22.7,26.4,"18:45:20",1
"21/07/06","19:00",0.0,28.8,69.6,1003.1,324.0,1.0,1.9,353.9,0.00,22.7,26.7,"18:51:36",1
"21/07/06","19:10",0.0,28.6,70.8,1003.6,315.8,0.7,1.4,334.0,0.00,22.8,26.5,"19:03:44",1
"21/07/06","19:20",0.0,28.3,72.3,1004.1,310.6,0.7,1.3,342.5,0.00,22.9,26.5,"19:10:40",1
"21/07/06","19:30",0.0,28.1,73.8,1004.1,330.7,0.8,1.3,333.3,0.00,23.0,26.4,"19:22:24",1
"21/07/06","19:40",0.0,27.7,74.8,1004.8,328.3,0.5,1.0,346.4,0.00,22.9,26.4,"19:38:48",1
"21/07/06","19:50",0.0,27.5,76.4,1004.3,337.6,0.5,1.2,343.6,0.00,23.0,26.5,"19:49:20",1
"21/07/06","20:00",0.0,27.1,77.6,1004.3,317.5,0.8,1.3,326.9,0.00,22.9,26.6,"19:51:12",1
"21/07/06","20:10",0.0,26.9,78.3,1004.3,344.1,0.5,1.0,326.8,0.00,22.8,26.5,"20:00:16",1
"21/07/06","20:20",0.0,26.8,79.7,1004.3,336.8,1.0,1.7,333.9,0.00,23.0,26.3,"20:13:20",1
"21/07/06","20:30",0.0,26.6,81.1,1004.8,325.3,1.0,1.6,319.0,0.00,23.1,26.3,"20:29:44",1
"21/07/06","20:40",0.0,26.3,81.9,1004.8,302.1,0.5,0.9,251.8,0.00,23.0,26.4,"20:36:32",1
"21/07/06","20:50",0.0,26.2,82.4,1005.0,308.0,0.7,1.4,325.1,0.00,23.0,26.4,"20:42:32",1
"21/07/06","21:00",0.0,26.2,82.6,1005.0,326.4,1.0,1.6,339.5,0.00,23.0,26.2,"20:56:24",1
"21/07/06","21:10",0.0,26.1,82.7,1005.0,329.2,1.0,1.4,337.3,0.00,23.0,26.4,"21:04:08",1
"21/07/06","21:20",0.0,26.0,82.8,1005.2,314.8,0.8,1.2,338.4,0.00,22.9,26.4,"21:10:40",1
"21/07/06","21:30",0.0,25.9,83.3,1005.5,333.3,1.1,1.6,326.6,0.00,22.9,26.4,"21:21:12",1
"21/07/06","21:40",0.0,25.9,83.5,1005.2,322.3,0.7,2.1,345.1,0.00,22.9,26.3,"21:38:08",1
"21/07/06","21:50",0.0,25.8,83.9,1005.7,276.3,0.3,0.9,255.5,0.00,22.9,26.0,"21:42:24",1
"21/07/06","22:00",0.0,25.9,84.1,1005.2,327.3,0.8,1.8,343.0,0.00,23.0,26.4,"21:59:04",1
"21/07/06","22:10",0.0,25.8,84.2,1005.2,322.0,0.7,1.3,342.2,0.00,23.0,26.2,"22:01:20",1
"21/07/06","22:20",0.0,25.9,84.4,1005.2,329.2,0.7,1.1,300.0,0.00,23.1,26.2,"22:17:52",1
"21/07/06","22:30",0.0,25.8,84.6,1005.2,336.0,0.6,1.2,339.2,0.00,23.0,26.0,"22:20:32",1
"21/07/06","22:40",0.0,25.8,85.2,1005.2,333.5,0.8,1.9,219.0,0.00,23.2,25.9,"22:30:02",1
"21/07/06","22:50",0.0,25.7,85.4,1005.0,307.3,1.0,2.5,220.0,0.00,23.1,26.2,"22:49:04",1
"21/07/06","23:00",0.0,26.1,84.6,1005.0,242.1,1.5,3.9,256.4,0.00,23.3,26.1,"22:55:28",1
"21/07/06","23:10",0.0,26.9,81.8,1005.0,284.3,1.1,2.9,238.2,0.00,23.6,26.2,"23:00:48",1
"21/07/06","23:20",0.0,27.3,79.4,1005.5,308.3,0.8,2.1,354.9,0.00,23.5,26.1,"23:18:32",1
"21/07/06","23:30",0.0,27.4,77.9,1005.0,320.7,0.7,1.4,333.3,0.00,23.2,26.0,"23:22:08",1
"21/07/06","23:40",0.0,27.4,77.2,1004.8,336.9,1.0,2.1,344.4,0.00,23.1,25.8,"23:35:36",1
"21/07/06","23:50",0.0,27.4,76.9,1004.8,303.4,1.0,2.2,308.8,0.00,23.0,26.0,"23:48:56",1
"21/07/06","24:00",0.0,27.7,76.3,1004.8,286.6,1.0,2.7,250.3,0.00,23.2,25.9,"23:51:44",1
